Theta_e
315 328 326 321 321 317 314 314 314 315 315 316 316 317 317 316 315 313 314 316 311 312 320 319 314 312 310 309 309 308 309 309 308 308 309 310 311 311 310 311 311 311 311 311 311 311 311 311 311 311 311 310 310 310 309 309 309 309 309 309 308 308 307 307 307 307 306 306 305 304 304 303 303 301 300 300 300 299 299 299 299 298 298 297 295 293
322 328 320 315 314 312 312 313 314 315 316 317 316 316 317 315 315 313 314 316 311 311 317 315 311 310 309 309 309 308 310 311 309 308 309 311 310 309 309 309 309 309 309 311 311 311 311 311 311 311 311 311 310 310 309 310 309 309 309 309 308 308 307 307 307 307 306 306 306 305 304 303 302 301 300 299 299 299 298 298 298 298 298 297 295 293
330 324 315 312 309 311 315 315 315 315 316 318 316 316 316 316 316 316 317 315 311 310 311 311 310 309 309 309 310 310 310 311 310 309 310 310 308 307 307 307 307 306 307 308 309 310 310 310 310 310 309 310 310 310 310 310 310 309 309 309 308 308 307 307 307 306 306 305 305 304 303 302 300 300 299 298 298 298 297 297 298 298 298 297 295 293
326 319 313 309 309 314 317 318 318 318 319 319 316 315 317 316 314 316 316 312 310 310 310 311 310 311 310 310 312 311 308 309 309 309 309 308 307 307 307 307 306 306 306 306 306 306 306 306 307 307 306 307 307 308 309 309 310 309 309 308 308 307 307 307 306 306 305 304 303 302 301 299 299 298 297 297 297 297 297 297 297 298 297 297 295 293
319 312 309 310 314 315 316 319 320 318 318 318 316 315 316 315 312 311 312 309 309 312 311 310 312 316 314 310 312 311 307 307 307 308 308 307 307 307 307 307 306 307 307 306 306 306 306 306 306 306 306 306 306 307 307 307 308 309 308 308 307 307 306 306 306 305 304 303 302 301 300 298 297 297 297 297 297 297 297 297 298 297 297 296 295 293
319 309 308 315 318 316 317 318 316 314 316 316 316 314 312 312 311 310 310 310 311 313 312 309 314 322 318 313 314 311 308 308 306 307 307 306 308 308 307 307 306 306 307 306 306 306 306 305 305 306 306 307 306 306 306 306 307 307 307 307 306 306 306 305 305 305 304 303 302 301 300 299 299 299 299 300 300 299 298 298 297 296 295 295 295 293
316 310 310 316 316 317 322 318 313 312 313 314 313 311 311 311 310 310 310 311 312 314 311 308 314 320 317 316 316 311 310 309 308 308 307 306 308 308 307 307 306 306 307 306 306 305 306 305 305 305 306 306 307 306 306 306 306 307 307 306 306 305 305 305 304 304 303 303 302 301 301 300 299 299 300 300 299 298 297 297 296 295 295 295 295 294
314 316 315 317 318 321 322 316 313 311 310 314 312 309 312 312 310 309 308 310 312 313 312 311 313 315 316 321 318 311 311 311 310 311 308 306 307 308 307 306 306 307 307 306 305 305 306 305 306 305 305 306 306 306 305 305 305 306 307 306 305 304 304 303 303 303 303 302 302 301 300 299 299 299 299 298 297 297 296 296 295 295 295 295 295 295
312 317 315 316 317 318 317 313 312 309 309 315 314 309 311 310 308 308 308 311 311 312 317 316 313 313 316 320 316 312 313 311 310 312 310 307 307 307 307 306 307 306 306 305 305 306 306 305 306 305 305 306 306 305 304 304 305 306 307 306 305 304 303 303 302 303 303 302 302 301 300 299 299 299 298 297 296 295 295 295 295 295 296 296 296 295
311 311 309 313 315 314 316 314 311 309 310 313 312 310 310 309 309 309 309 312 312 315 321 319 313 310 313 315 312 313 315 310 311 314 311 307 306 307 307 306 307 306 305 305 305 306 305 305 305 305 305 305 305 304 304 304 304 305 306 305 304 303 302 302 302 302 302 302 301 301 300 300 299 298 297 297 296 295 295 295 295 296 296 296 296 295
310 308 307 310 312 310 312 312 308 307 308 309 312 313 313 313 312 311 310 312 313 317 323 321 313 308 310 314 312 312 312 311 312 313 311 308 306 307 307 307 306 305 305 305 305 305 305 305 305 304 304 304 304 304 303 303 304 304 304 303 303 302 302 302 301 301 301 301 301 300 300 299 299 298 297 297 296 296 295 295 296 296 296 296 295 295
313 316 311 308 308 306 309 312 310 309 306 307 313 314 312 315 316 315 316 316 311 312 321 321 312 307 311 316 314 311 313 316 313 310 309 309 307 307 307 306 305 305 305 306 305 305 305 304 304 304 303 303 303 303 302 302 303 303 303 302 302 302 302 301 301 301 301 301 300 300 299 299 298 298 297 297 297 296 296 296 296 296 296 295 295 295
317 318 311 309 307 305 308 311 312 313 310 308 312 313 313 316 314 312 316 315 310 310 315 314 309 309 312 314 314 313 314 316 312 308 307 308 306 306 306 305 305 306 305 305 305 305 305 304 304 303 301 302 301 301 301 301 302 302 302 302 302 302 302 301 300 300 300 300 300 300 299 299 298 298 297 297 296 296 296 296 296 295 295 295 295 296
315 315 311 311 309 306 308 308 308 312 311 309 311 313 316 316 310 309 313 311 309 310 309 307 307 310 313 313 314 313 311 309 308 307 306 306 305 305 305 305 305 305 305 305 305 304 304 304 303 301 299 299 299 298 299 300 301 301 301 302 301 301 301 300 300 299 299 300 300 300 299 298 298 297 297 297 296 296 296 295 296 296 296 296 296 296
311 311 311 310 306 307 311 309 306 308 309 310 310 310 313 314 308 309 312 309 309 310 308 307 308 311 313 313 312 309 307 307 307 307 306 304 305 305 305 305 305 305 305 305 305 304 304 303 302 300 298 298 298 298 298 298 299 300 301 301 301 301 301 300 300 300 299 299 299 299 299 298 298 297 297 296 296 296 295 295 295 295 295 296 296 296
308 310 312 308 304 307 310 308 305 307 310 310 311 313 314 313 310 310 312 309 309 310 310 310 311 311 310 310 310 307 305 306 305 305 304 304 305 305 305 305 305 305 305 304 304 304 303 302 301 300 299 298 298 298 298 297 297 297 299 300 300 301 301 300 300 300 299 299 298 298 298 298 298 297 297 296 296 295 295 295 295 295 295 295 295 295
307 312 314 307 305 307 306 306 306 306 308 309 311 313 311 309 309 310 311 310 308 309 311 311 309 310 308 310 316 313 308 307 305 304 303 303 305 305 305 305 305 305 304 304 304 303 303 302 301 300 299 298 298 297 297 297 297 297 297 297 298 299 300 300 300 300 300 299 298 298 298 298 298 297 297 296 296 295 295 295 295 295 295 295 295 295
305 310 314 308 308 309 303 304 307 304 304 309 311 309 307 308 312 310 308 311 311 308 309 309 307 308 307 310 317 314 310 308 306 305 303 302 304 304 305 305 305 304 304 304 304 303 302 302 301 300 299 298 298 297 297 297 297 297 296 296 296 297 297 298 298 299 300 300 299 298 298 297 297 297 297 296 296 295 295 294 294 294 294 294 295 294
305 308 314 310 307 307 303 305 310 308 304 305 306 307 306 307 310 310 307 310 309 306 308 310 308 307 308 313 315 310 308 307 305 305 304 303 304 304 304 305 304 304 304 304 304 303 302 302 301 300 299 298 297 297 297 297 296 296 296 296 296 296 296 296 297 297 298 299 300 299 298 297 297 296 296 296 295 295 294 294 294 294 294 294 294 294
306 307 311 311 307 306 307 307 311 313 309 306 306 309 309 307 309 310 308 308 309 308 310 311 308 307 310 316 314 306 305 305 304 305 305 304 303 304 304 304 304 304 304 303 303 303 303 302 301 300 299 298 297 297 296 296 296 296 296 296 296 296 295 295 296 296 296 297 298 299 299 297 296 296 296 295 295 295 294 294 293 294 294 293 293 294
307 307 309 311 308 307 308 308 309 309 308 309 309 309 309 309 310 308 306 308 310 310 311 310 308 307 307 309 307 304 305 305 304 305 303 302 303 304 304 304 304 304 303 303 303 302 303 302 300 299 298 298 297 296 296 296 296 296 295 296 296 296 295 295 295 295 296 296 297 298 298 298 297 296 295 295 295 294 294 293 293 293 293 293 293 293
306 306 306 309 308 307 307 307 307 306 305 306 307 308 309 311 309 306 306 309 309 308 309 308 306 305 304 304 304 305 305 304 304 303 302 302 302 303 304 304 304 303 302 302 302 302 302 300 299 298 297 297 296 296 295 295 295 295 295 295 295 295 295 295 295 295 295 295 296 296 297 297 297 296 295 295 294 294 294 293 293 293 293 292 292 292
302 303 304 308 308 305 305 304 300 301 303 304 305 307 309 310 309 306 307 309 307 305 306 306 305 305 304 305 305 305 304 302 303 302 301 302 302 303 304 304 304 303 302 301 301 301 300 298 298 297 296 296 295 295 294 294 294 294 294 294 294 294 295 295 295 295 295 295 295 296 296 296 297 296 296 295 295 294 294 293 293 293 293 292 291 291
300 303 305 309 309 305 305 304 299 299 303 305 306 306 306 308 310 309 307 306 305 305 305 304 306 306 304 305 304 302 302 301 302 302 301 301 302 303 304 303 302 301 300 299 298 297 297 296 296 296 295 295 295 294 294 294 294 294 294 294 294 294 294 295 295 295 295 295 295 295 295 295 296 296 295 295 295 294 294 293 293 292 292 292 291 291
301 306 307 309 309 305 303 304 302 302 304 304 305 306 306 307 308 307 305 303 305 307 305 304 305 305 303 304 303 301 302 301 301 302 302 301 302 303 302 301 300 298 297 297 296 296 296 296 296 296 295 295 295 295 295 295 295 294 294 294 294 294 294 294 295 295 295 295 294 294 295 295 295 295 295 295 295 294 294 293 293 292 292 291 291 291
303 308 307 306 307 304 302 304 303 303 303 303 304 305 305 305 305 304 304 304 306 306 305 305 306 303 302 303 302 301 302 301 301 302 302 302 301 300 299 298 297 296 296 296 296 296 296 296 296 295 295 295 295 295 295 295 295 295 295 295 295 295 294 294 294 295 295 295 295 294 294 294 295 294 294 294 294 294 293 293 292 292 291 291 290 290
303 306 306 308 309 306 304 305 304 304 303 303 304 304 303 304 303 303 303 304 305 304 303 304 304 302 302 302 302 302 302 301 302 301 301 300 299 297 296 296 296 296 295 295 295 295 295 295 295 295 295 295 295 295 295 294 294 294 294 295 295 295 295 295 295 294 295 295 295 295 294 294 294 294 294 294 293 293 292 292 292 291 291 290 290 289
304 306 306 306 308 308 306 304 304 304 303 302 303 304 303 303 303 302 303 304 304 304 304 304 303 303 303 302 302 301 300 300 300 300 299 298 296 296 295 295 295 295 295 294 294 294 294 294 294 294 294 294 294 293 293 293 292 292 292 292 293 293 293 294 294 294 294 294 294 294 294 294 294 294 294 293 293 292 292 291 291 291 290 290 289 289
302 306 306 304 306 307 305 303 303 302 301 302 302 303 303 303 303 303 303 303 303 303 304 303 303 303 302 300 299 298 297 297 298 298 297 296 295 295 294 293 293 294 294 293 293 293 293 293 292 292 292 292 292 291 291 291 291 291 291 291 291 292 292 292 293 293 293 293 293 294 294 294 294 294 294 294 293 292 291 291 290 290 290 289 289 288
299 308 308 302 304 304 302 303 303 302 303 303 303 302 302 302 303 303 303 302 302 302 303 302 303 302 300 297 296 296 296 295 295 296 296 295 295 294 293 293 293 293 292 292 292 291 291 291 291 291 291 291 290 290 290 290 290 290 290 291 291 291 292 291 291 291 292 293 293 293 294 294 294 294 294 294 294 293 291 291 290 289 289 289 288 288
299 307 306 302 303 303 302 304 304 303 304 302 301 302 302 302 303 303 303 302 302 302 302 301 301 300 297 296 296 296 295 294 294 295 295 295 294 293 293 292 292 292 292 291 291 291 291 290 290 291 290 290 289 289 289 289 289 289 290 291 291 291 291 291 291 292 292 293 293 293 294 294 294 294 294 294 294 293 292 291 290 289 289 288 288 287
300 304 305 304 304 302 302 304 303 302 302 303 303 303 302 302 302 302 302 301 300 299 299 299 299 298 296 295 295 295 294 293 293 293 295 295 294 293 292 292 291 291 291 291 291 291 290 290 290 291 291 290 290 289 289 289 289 290 290 290 291 291 291 291 292 292 293 293 293 294 294 294 294 294 294 294 294 293 292 291 290 289 288 288 288 287
300 301 303 304 304 303 302 302 302 301 302 304 304 302 301 301 302 301 300 298 297 297 297 297 296 296 295 294 294 294 293 293 293 293 294 295 294 292 292 291 291 291 291 291 291 291 291 290 290 290 291 290 290 289 289 289 290 290 290 291 291 291 291 291 292 292 293 293 293 293 294 294 294 294 294 294 293 293 292 291 290 289 288 288 287 286
300 300 302 303 304 305 303 301 302 301 302 304 302 299 299 300 300 300 299 296 295 295 295 295 295 294 294 293 293 294 293 293 293 292 292 293 293 292 291 291 291 291 291 291 291 291 290 290 290 290 290 290 290 289 289 290 290 290 290 290 291 291 291 291 292 292 292 292 293 293 293 293 293 294 294 294 293 293 292 291 290 289 288 288 287 286
301 301 302 303 304 305 304 303 302 301 303 304 301 298 298 297 297 298 297 295 294 294 294 294 294 294 293 293 293 293 293 292 292 291 292 292 292 291 291 290 290 290 290 290 290 290 290 290 290 290 289 289 290 290 290 290 290 290 290 290 291 291 291 291 291 292 292 292 292 292 293 293 293 293 294 294 293 293 292 292 291 290 289 288 287 286
301 301 301 302 304 305 305 304 302 301 302 301 298 298 297 295 295 297 298 296 293 293 294 293 293 293 293 293 292 292 292 291 291 291 291 291 290 290 290 290 290 290 290 290 290 290 289 289 289 289 289 289 289 290 290 290 290 290 290 290 291 291 291 291 291 291 291 291 292 292 292 292 292 292 293 294 293 293 292 291 291 290 289 288 287 286
298 300 301 302 303 304 304 304 302 301 301 299 297 297 296 294 294 295 298 297 293 293 294 293 292 293 292 292 292 291 291 290 290 290 290 290 290 289 289 289 289 289 289 289 289 289 289 289 289 289 289 289 289 290 290 290 290 290 290 290 290 290 291 291 291 291 291 291 291 291 292 292 292 292 293 293 293 293 292 291 291 290 289 288 287 286
296 298 300 301 302 302 303 303 302 302 301 297 295 295 293 293 293 294 297 298 295 293 293 292 292 292 292 292 292 291 290 290 289 289 290 289 289 289 289 289 289 289 289 289 289 289 289 289 289 289 289 289 289 289 289 289 289 289 289 290 290 290 290 290 291 291 291 291 291 291 291 291 292 292 293 293 293 293 292 291 291 291 289 288 287 286
296 297 298 299 300 301 301 302 302 302 300 295 293 293 292 292 293 294 297 298 295 293 293 292 292 292 292 292 291 290 290 289 289 289 289 289 289 289 288 288 288 289 289 289 289 289 289 289 289 289 289 289 289 289 288 288 288 289 289 289 290 290 289 289 290 290 290 290 290 290 290 291 291 291 292 292 293 293 292 291 291 291 290 288 287 286
299 298 298 300 301 301 301 302 302 301 297 293 292 292 292 292 294 295 295 295 293 292 292 292 291 292 292 291 290 290 289 289 289 289 289 289 289 288 288 288 288 289 289 289 289 289 289 289 289 289 289 288 288 288 288 288 288 289 289 289 289 289 289 289 290 290 290 290 290 290 290 290 291 291 291 292 292 292 292 292 291 291 290 288 287 286
304 302 300 301 303 302 301 302 303 300 294 291 292 292 291 292 294 293 292 292 292 292 292 291 291 291 291 290 290 289 289 289 289 289 288 288 288 288 288 288 288 288 288 288 288 288 288 288 288 288 288 288 288 288 288 288 288 289 289 288 289 289 289 289 289 290 290 290 290 290 290 290 290 291 291 291 291 292 292 292 292 291 290 288 287 286
304 304 302 301 303 304 302 302 302 300 294 291 292 292 291 292 292 291 291 291 291 291 291 290 290 290 290 290 289 289 289 288 288 288 288 288 288 288 288 288 288 288 288 288 288 288 288 288 288 288 288 288 288 288 288 288 288 288 288 288 289 289 289 289 289 290 290 290 290 290 290 290 290 290 291 291 291 291 292 292 292 291 289 288 287 286
302 302 303 302 302 303 301 300 301 298 294 291 291 292 291 291 291 290 290 290 290 290 290 290 290 290 289 289 288 288 288 288 288 288 288 287 287 287 288 288 287 287 288 287 287 288 287 288 288 288 288 288 288 288 288 288 288 288 288 288 288 288 289 289 289 289 289 289 290 290 290 290 290 290 290 290 290 291 291 291 291 290 289 288 287 286
300 299 301 300 300 299 299 299 298 295 293 291 291 291 291 290 290 290 289 289 289 289 289 289 289 289 288 288 288 288 288 288 288 288 287 287 287 287 287 287 287 287 287 287 287 287 287 287 288 287 288 288 287 287 287 287 288 288 288 288 288 288 289 289 289 289 289 289 290 290 290 290 290 290 290 290 290 290 291 291 291 290 289 288 287 285
298 296 297 298 297 295 295 295 295 293 292 291 291 291 290 290 289 289 289 289 289 289 289 289 288 288 288 288 288 288 288 287 287 287 287 287 287 287 287 287 287 287 287 287 287 287 287 287 287 287 288 287 287 286 286 287 287 288 288 288 288 288 288 289 289 289 289 289 290 290 290 290 290 290 290 290 290 290 290 291 290 289 289 287 286 285
294 293 295 295 294 293 293 293 293 292 291 291 290 290 290 289 289 289 288 289 289 288 288 288 288 288 287 287 287 287 287 287 287 287 287 287 287 287 287 287 287 287 287 287 287 287 287 287 287 287 287 287 286 286 286 287 287 288 288 288 288 288 289 289 289 289 289 289 290 290 290 290 290 290 290 290 290 290 290 290 290 289 288 287 286 284
293 293 294 292 291 291 292 293 292 291 291 290 290 290 289 289 289 288 288 288 288 288 288 287 287 287 287 287 287 287 287 287 287 287 287 287 287 287 287 287 287 287 287 287 287 287 287 287 287 287 287 287 286 286 286 287 287 287 288 288 288 288 289 289 289 289 289 289 290 290 290 290 290 290 290 290 290 290 290 289 289 288 287 286 285 284
293 292 292 291 290 291 291 291 291 291 290 290 290 289 289 288 288 288 288 288 287 287 287 287 287 287 287 287 287 287 287 287 287 287 287 287 287 287 287 287 287 287 287 287 287 287 287 287 287 287 287 287 287 287 287 287 287 287 287 288 288 288 288 288 289 289 289 289 289 290 290 290 290 290 290 289 289 289 289 289 288 287 286 286 285 284
292 292 291 291 291 290 291 291 290 290 289 289 289 289 288 288 287 287 287 287 287 287 287 287 287 287 287 287 287 287 287 287 287 287 287 287 287 287 287 287 287 287 287 287 287 287 287 287 287 287 287 287 287 287 287 287 287 287 287 287 288 288 288 288 288 289 289 289 289 290 290 290 290 290 289 289 288 288 288 287 287 286 285 285 284 283
291 291 291 291 290 290 290 290 289 289 289 289 288 288 287 287 287 287 287 287 287 287 286 286 287 286 286 287 287 287 287 287 287 287 287 287 287 286 286 286 286 287 287 287 287 287 287 287 287 287 287 287 287 287 287 287 287 287 287 287 287 288 288 288 288 289 289 289 289 289 289 289 290 289 289 289 288 287 287 286 286 286 285 284 283 282
291 290 290 290 289 290 290 289 289 288 288 288 287 287 287 287 287 287 287 286 286 286 286 286 286 286 286 286 286 286 287 286 286 286 286 286 286 286 286 286 286 286 286 286 286 287 286 287 287 287 287 287 287 287 287 287 287 287 287 287 287 287 288 288 288 289 289 289 289 289 289 289 290 289 289 288 287 287 286 286 285 285 284 283 282 281
Wind_Speed
3 4 3 1 4 4 4 2 4 3 3 4 3 3 6 6 6 8 7 5 3 3 5 7 7 12 18 17 20 30 26 16 16 17 17 16 13 11 13 14 13 13 14 18 22 21 18 15 14 14 14 15 16 19 22 23 25 26 27 27 28 28 29 30 31 32 33 33 34 35 36 36 35 35 34 33 31 29 28 25 23 21 19 19 20 20
4 5 1 4 5 3 4 3 1 2 2 3 3 4 6 5 7 7 4 4 5 5 6 7 9 14 17 16 18 23 18 10 11 12 12 16 20 23 28 26 23 26 24 15 8 5 6 7 8 11 13 15 17 19 21 23 25 27 28 29 29 29 30 31 32 33 34 34 34 35 35 34 33 33 33 33 31 29 27 26 24 22 19 19 20 21
5 3 4 4 3 4 4 3 2 3 3 3 3 3 6 4 6 7 4 5 6 5 8 10 10 13 16 13 13 14 8 7 13 13 13 23 28 27 31 31 29 29 28 25 19 13 10 9 9 11 13 15 18 20 22 24 25 26 28 30 30 31 33 33 34 34 35 34 34 35 35 33 32 32 32 32 30 29 28 27 25 22 19 19 19 21
4 2 5 5 6 6 5 5 4 4 4 3 3 3 6 5 4 5 5 7 7 4 6 9 9 9 11 9 7 10 11 14 23 28 27 27 26 25 28 28 28 27 26 25 22 20 19 17 17 17 17 16 16 18 21 23 25 27 28 29 30 32 34 35 36 36 36 35 35 35 35 33 31 32 32 31 31 31 31 28 26 24 20 19 19 20
1 3 4 5 5 4 4 6 6 5 5 4 4 3 5 5 3 4 6 9 8 4 2 6 8 5 6 10 7 9 16 18 22 27 25 24 24 24 26 27 26 25 24 25 23 23 24 23 23 24 22 19 17 18 21 23 24 26 27 28 30 32 34 35 36 37 37 36 36 36 35 34 33 34 34 34 34 34 32 30 27 24 21 19 19 20
1 3 4 5 5 5 5 5 5 4 5 6 4 3 4 6 6 6 7 9 6 4 3 6 6 5 6 9 6 6 10 12 13 15 14 17 22 22 23 25 24 23 23 24 25 25 26 27 26 27 26 23 22 22 23 24 24 25 26 27 29 31 33 34 36 37 38 38 37 37 38 37 37 37 37 35 34 33 31 28 26 24 22 20 20 20
2 3 3 4 4 6 6 4 3 4 5 6 4 3 4 6 7 6 6 5 3 4 4 4 3 3 7 7 5 4 7 8 9 8 7 11 16 18 19 21 21 20 20 22 26 28 28 29 29 29 28 27 26 26 26 26 25 25 24 25 26 28 30 32 34 36 38 39 39 39 40 40 40 39 38 36 34 32 30 27 26 25 24 22 21 21
2 6 6 6 5 6 6 4 4 3 5 5 4 1 6 9 8 5 2 1 2 3 6 3 4 2 5 7 6 3 6 7 8 7 6 6 10 14 16 18 19 18 18 21 26 30 30 30 29 29 30 27 25 25 27 28 27 26 23 22 23 25 27 29 31 34 36 38 39 40 41 41 41 41 39 37 34 32 30 29 29 27 26 24 22 22
2 5 5 5 6 5 3 4 5 2 2 7 6 2 8 8 6 3 2 3 2 2 5 5 1 0 5 7 6 4 6 6 6 6 7 5 8 12 13 15 16 15 17 22 26 29 30 30 29 29 28 25 23 25 29 29 28 26 24 23 24 25 26 27 29 32 35 37 39 40 41 42 42 41 40 37 35 33 32 32 32 30 28 26 24 23
2 2 1 2 4 2 4 6 5 2 2 9 7 6 7 3 1 3 3 2 2 4 2 6 1 1 5 6 5 4 4 3 6 6 7 5 8 10 11 13 14 15 20 25 26 28 31 29 26 26 25 24 25 28 30 29 26 25 24 25 27 28 29 29 30 32 34 35 37 39 40 41 42 41 40 38 36 35 35 36 35 33 30 28 25 24
2 1 1 2 2 3 6 7 4 4 5 8 7 6 5 4 3 1 1 2 4 3 5 7 2 2 3 5 3 2 2 4 5 4 7 5 4 6 7 11 15 20 26 28 28 30 31 27 23 25 26 25 26 28 30 28 25 24 24 27 30 31 31 31 32 33 34 34 36 38 40 41 41 41 40 39 38 38 37 37 36 34 31 28 26 25
6 3 2 1 1 3 3 4 4 0 1 5 5 4 5 5 4 4 5 4 4 4 7 6 2 1 2 5 5 5 6 6 5 3 5 6 4 2 6 12 18 24 28 29 30 31 30 26 27 28 27 25 26 29 30 26 23 25 27 30 32 32 32 33 34 34 34 34 36 37 39 40 41 41 41 40 39 38 38 38 36 34 31 29 28 27
5 2 4 3 2 3 3 4 6 5 5 6 4 5 5 4 5 5 5 4 2 6 7 3 2 1 4 6 7 7 7 8 9 6 5 6 4 3 10 17 21 25 28 29 29 29 28 27 29 30 28 27 28 29 28 25 23 24 26 28 30 31 32 35 35 32 32 34 35 37 38 40 40 41 41 41 40 39 38 38 37 36 34 32 30 29
4 5 7 3 2 3 4 4 5 4 5 6 3 4 3 2 4 5 4 4 4 7 10 3 3 2 5 5 7 8 9 12 11 5 4 3 3 8 14 19 22 25 27 28 27 26 26 26 28 28 28 27 27 26 26 26 25 24 23 25 28 30 32 34 34 30 28 31 34 36 37 39 40 41 41 41 41 40 39 38 38 38 36 34 32 30
4 6 5 2 3 4 3 1 1 2 3 4 2 4 3 2 2 2 2 3 5 7 11 6 3 3 5 5 8 8 10 15 11 5 4 4 8 9 13 18 20 24 25 25 24 23 23 24 25 27 28 28 27 27 26 26 26 25 24 23 25 28 28 29 31 29 26 28 31 33 36 38 39 41 41 41 41 41 40 39 38 38 37 36 34 31
3 5 7 2 2 1 1 2 3 2 2 4 1 4 2 2 4 2 3 5 4 5 7 4 1 4 4 8 10 5 5 10 8 6 4 5 8 10 12 16 18 21 24 23 21 21 22 22 24 26 29 29 29 29 28 28 27 27 26 25 25 25 25 25 28 28 26 26 28 30 33 36 38 40 41 42 42 41 41 40 39 39 38 36 34 31
3 6 8 5 3 3 2 2 2 1 2 2 2 2 3 3 6 1 4 3 2 2 4 3 4 5 4 7 8 6 6 8 7 8 5 3 6 10 11 14 15 19 23 22 20 23 24 22 23 26 28 30 31 32 32 30 29 29 28 28 27 27 25 25 27 28 27 26 26 28 30 33 36 38 40 41 42 42 41 41 40 39 38 37 35 32
1 5 8 3 4 5 3 1 3 2 1 2 1 4 3 2 4 3 1 3 4 2 5 4 5 6 4 5 7 7 9 11 9 8 6 4 5 9 10 12 14 18 22 22 23 26 25 22 23 26 28 30 31 32 33 32 32 31 30 30 30 29 29 28 28 29 29 27 26 26 27 30 33 36 38 40 41 42 42 42 41 40 39 38 36 34
1 4 8 3 3 6 1 2 4 4 1 1 2 3 2 2 2 1 1 2 2 3 6 6 7 5 3 4 6 7 8 12 12 8 6 7 6 9 11 12 14 18 21 23 25 27 25 22 21 24 28 30 31 32 32 33 33 33 33 32 31 30 30 30 30 31 31 30 28 26 26 27 30 33 36 38 40 41 43 43 42 40 40 39 38 36
0 0 6 5 3 5 3 3 3 5 4 2 3 3 2 2 3 2 1 2 2 3 4 6 8 5 5 6 5 7 10 11 10 8 7 8 9 11 12 12 16 20 23 24 26 29 28 21 18 22 26 30 32 33 33 33 34 34 35 36 35 33 32 31 30 30 31 31 30 28 26 25 27 30 34 36 39 41 43 43 42 41 40 40 40 38
2 1 4 6 5 5 3 1 2 3 3 3 3 3 3 2 1 1 1 2 4 2 3 4 6 7 7 5 5 10 13 9 7 7 7 11 15 14 11 14 18 21 24 25 28 33 29 20 17 23 28 31 33 34 34 35 35 36 36 38 39 39 38 36 33 31 30 30 30 29 27 25 25 27 30 33 37 40 42 43 44 43 41 41 41 40
1 1 2 5 6 4 5 6 5 5 4 3 2 2 3 2 1 2 4 2 1 3 4 3 6 10 10 5 5 9 8 6 9 10 9 19 24 16 14 19 19 20 25 29 34 36 27 20 23 29 30 32 34 36 37 37 36 37 38 39 41 42 41 41 39 36 34 31 30 29 27 26 25 26 28 31 34 37 40 42 43 43 43 42 43 42
1 1 1 5 5 7 12 7 3 4 3 3 3 3 2 2 3 2 4 5 3 2 3 3 4 10 9 4 5 6 6 10 16 15 14 23 26 18 19 23 20 23 30 34 35 32 27 27 31 33 33 34 36 38 39 39 38 37 36 37 40 41 41 41 41 41 39 36 33 30 28 27 26 26 27 30 33 35 38 40 42 43 43 43 43 43
1 1 1 5 6 7 10 5 3 3 2 0 4 3 2 2 4 6 5 2 2 5 4 2 4 10 7 2 3 8 13 17 20 21 21 23 23 19 23 26 24 28 33 33 32 31 32 34 36 36 37 37 38 39 40 41 40 38 36 35 38 40 40 40 41 42 42 41 38 33 30 28 27 27 28 30 32 34 36 38 40 42 43 43 43 44
2 0 2 4 6 8 8 7 5 2 1 2 6 3 3 2 3 1 2 2 1 6 6 4 5 10 7 5 9 15 16 16 21 28 27 21 20 22 27 28 28 30 33 35 36 35 35 36 37 38 39 40 40 41 42 43 44 43 40 36 37 40 40 39 40 42 43 44 42 38 34 31 29 28 29 30 32 33 35 37 39 42 43 43 43 44
1 2 2 2 2 5 7 6 6 6 5 6 7 6 3 2 1 4 2 1 3 5 4 4 7 11 11 13 15 17 15 15 24 31 28 22 23 28 29 29 29 31 33 36 38 37 37 38 38 39 40 41 41 41 43 44 46 48 45 41 40 42 43 41 41 41 43 44 45 42 38 34 31 30 30 30 32 33 34 36 38 41 42 43 44 44
1 1 2 5 5 5 7 8 7 4 6 9 14 17 13 4 3 3 1 3 5 2 3 9 11 13 15 16 16 16 17 19 22 25 25 27 30 31 30 31 33 35 36 38 38 38 38 39 38 39 40 41 41 42 44 45 47 49 48 46 45 45 46 45 43 42 43 43 45 44 41 37 34 32 31 31 32 33 34 36 38 40 41 42 43 43
3 2 5 6 8 10 10 11 10 7 8 12 14 19 19 11 3 4 6 10 6 1 7 14 14 14 15 16 17 19 21 21 21 24 27 29 32 33 35 39 42 40 40 42 42 40 39 39 39 41 42 41 42 44 45 46 46 47 48 48 47 46 45 45 44 43 43 43 44 45 43 40 36 34 33 32 32 34 35 36 38 39 40 41 43 43
3 3 5 5 7 12 11 11 12 9 8 10 13 17 18 15 11 8 12 15 8 5 11 16 16 16 13 16 20 21 23 23 26 29 28 29 33 36 40 45 45 41 42 46 46 43 43 44 44 44 44 43 44 44 45 47 47 48 48 49 48 47 46 46 46 44 43 44 45 45 43 41 38 36 35 34 34 34 35 36 38 38 39 41 42 43
2 3 5 3 5 11 12 12 11 8 6 9 15 17 14 13 14 13 13 13 9 10 15 16 17 13 10 15 16 20 27 30 33 34 28 27 32 34 39 44 43 42 44 46 46 47 47 47 47 46 45 44 45 45 46 48 49 50 51 50 49 49 49 50 50 47 46 46 46 45 42 41 40 38 36 35 35 35 35 35 37 38 39 40 41 42
1 2 3 2 4 11 11 7 6 5 6 12 18 17 12 12 13 11 9 7 5 7 10 10 10 7 12 18 20 24 33 35 33 32 26 24 30 36 43 46 45 45 46 46 47 49 49 49 48 47 46 46 46 46 46 47 49 50 51 50 49 50 51 52 51 50 48 48 47 45 42 41 41 40 38 37 36 35 34 34 36 38 39 40 41 42
1 3 4 5 5 11 8 4 7 9 9 12 13 11 12 12 11 9 6 6 6 6 8 11 9 7 12 20 22 25 33 34 29 30 28 25 30 37 42 46 45 45 46 47 48 48 48 48 48 46 47 47 46 46 46 47 49 51 51 50 49 51 52 52 51 49 49 48 48 46 43 41 40 41 40 38 37 36 34 34 35 37 39 40 41 41
1 0 3 4 4 10 11 10 12 11 8 7 6 10 14 11 10 11 7 9 10 7 7 7 7 8 12 17 18 19 26 28 26 30 31 28 30 36 40 43 44 45 45 46 46 46 47 48 48 48 48 48 48 48 48 49 51 51 51 50 50 51 52 52 51 49 48 48 48 47 45 42 41 41 41 39 37 36 35 34 35 37 38 39 40 40
1 1 2 1 1 9 13 12 11 9 6 5 4 13 16 11 13 15 8 7 10 9 7 7 8 11 15 16 15 15 19 23 27 32 35 32 33 37 40 43 45 46 46 46 46 47 48 49 50 50 50 50 50 51 51 52 53 53 52 50 50 51 52 52 51 49 48 48 48 47 45 43 42 42 42 39 36 35 36 35 35 36 37 38 40 41
2 0 2 2 2 6 8 7 9 9 6 4 5 14 17 15 16 16 6 6 11 13 12 13 13 14 16 17 18 19 22 29 35 37 38 37 37 39 41 43 45 46 48 49 50 50 52 52 52 52 52 52 52 53 53 54 54 54 52 51 51 52 52 52 51 49 49 48 48 47 45 44 44 43 42 40 34 33 36 36 36 36 37 38 40 41
1 2 1 1 2 4 5 4 5 10 8 8 11 15 20 20 19 18 8 5 10 14 14 14 14 16 20 23 26 29 34 40 39 37 38 38 40 44 46 47 49 50 52 53 53 54 54 54 53 53 53 53 53 53 54 54 54 54 53 52 52 51 51 51 50 49 48 47 47 47 46 46 45 42 41 39 35 32 35 37 36 36 37 38 39 41
5 2 1 2 2 1 3 4 6 10 8 9 10 11 16 15 14 14 9 2 8 17 19 16 15 21 27 31 35 41 45 40 29 28 38 44 49 54 55 54 54 54 54 55 55 55 56 55 55 55 55 55 55 55 55 54 54 53 52 52 50 50 49 49 49 48 47 47 47 48 47 47 46 44 41 38 36 34 34 35 35 35 36 38 39 40
7 4 2 1 1 1 2 5 5 7 5 5 9 13 19 24 23 16 8 4 10 28 32 24 20 27 30 31 36 41 39 27 15 20 38 49 54 56 56 55 55 54 55 56 55 56 56 56 56 56 56 55 55 55 55 53 52 52 51 50 50 50 49 49 49 48 47 48 48 48 47 46 45 46 43 39 37 35 33 34 34 33 35 37 38 39
4 3 4 1 3 1 2 5 5 4 3 6 12 17 26 35 31 17 9 5 14 33 38 29 25 30 28 29 34 31 23 15 11 21 40 52 54 55 55 56 56 55 55 55 54 55 56 56 55 56 55 54 54 54 53 51 51 51 50 50 51 50 49 49 49 48 47 48 48 47 46 44 43 44 43 40 37 33 31 33 34 32 33 35 36 37
0 1 3 2 5 3 2 4 4 2 1 6 12 19 31 37 27 13 9 10 17 31 36 31 29 31 30 33 32 20 12 13 17 31 49 55 53 55 57 56 55 55 54 54 54 55 56 55 54 54 55 55 55 54 53 52 50 48 48 49 50 50 50 50 49 48 47 47 47 46 45 43 43 43 41 40 37 33 31 33 33 32 32 34 35 36
3 2 2 3 5 4 3 4 4 2 1 10 19 26 35 32 17 8 8 15 23 32 36 34 34 34 35 36 30 20 22 32 40 48 56 55 54 58 58 55 54 55 54 54 55 55 54 53 52 54 56 56 55 54 55 52 48 46 48 50 49 50 51 50 49 49 48 46 46 45 44 43 42 41 40 39 38 35 33 32 33 32 32 32 33 34
5 4 2 1 4 4 3 4 5 3 4 21 30 30 30 21 7 5 15 25 32 36 36 36 36 36 37 38 36 35 41 49 53 53 54 55 57 58 57 55 55 55 54 54 54 54 52 52 54 55 56 56 55 55 53 49 46 48 51 50 50 50 51 49 48 48 47 46 45 45 44 43 42 41 40 39 38 36 35 34 33 32 31 31 32 33
4 4 4 3 3 4 4 5 5 3 8 25 27 17 15 13 9 16 24 30 33 36 36 36 36 38 39 41 43 46 49 51 52 52 54 57 58 56 56 56 55 55 55 54 53 53 52 53 54 55 55 56 55 53 51 47 47 49 50 50 51 51 49 48 47 46 46 45 44 44 45 45 44 42 41 40 37 36 36 36 34 32 30 30 31 32
3 2 4 4 3 5 5 3 5 6 11 23 22 11 11 19 25 29 30 30 33 37 38 36 37 41 44 45 47 49 49 49 51 53 56 58 57 55 56 56 55 55 54 53 53 53 53 52 53 55 56 57 53 51 50 49 47 47 48 50 50 49 47 47 47 45 46 45 43 43 45 45 45 44 43 39 36 34 35 36 34 31 29 29 30 30
5 6 7 4 3 5 5 4 10 15 21 29 28 22 27 36 39 39 39 37 38 41 41 40 42 47 50 50 48 47 47 49 53 56 57 56 55 55 56 56 56 55 54 53 54 54 53 53 53 55 57 55 51 49 50 48 46 45 47 49 49 47 46 46 46 46 46 45 43 43 45 46 45 44 42 39 35 33 33 33 31 29 29 28 29 29
9 17 11 1 5 9 6 9 21 26 30 36 34 32 36 42 43 44 43 41 41 43 44 45 47 50 51 50 48 47 49 52 55 56 56 55 55 55 56 56 57 55 54 53 54 54 54 53 53 54 56 55 51 50 50 48 46 45 47 48 48 46 45 45 45 46 47 45 43 43 44 45 45 44 42 38 33 31 31 30 28 27 27 27 27 28
12 22 12 2 8 10 5 12 23 28 33 37 35 36 40 42 43 45 44 43 45 47 49 51 50 50 50 49 48 49 52 53 54 54 55 54 55 55 56 56 56 55 54 53 54 55 54 51 51 53 56 56 53 50 49 49 47 46 46 47 47 45 45 45 45 46 46 44 42 42 43 44 44 43 41 37 33 30 29 27 26 25 26 26 26 27
12 17 10 5 10 9 7 15 26 33 37 38 36 39 44 46 48 49 47 48 50 53 55 56 53 51 51 51 51 51 53 54 53 53 54 54 55 56 56 55 55 56 55 54 55 55 53 50 51 53 56 57 55 51 49 49 47 46 46 46 45 44 44 45 44 45 45 43 41 42 43 43 43 42 41 38 33 29 26 24 23 24 24 24 24 25
11 11 9 9 10 8 10 19 28 29 29 31 36 41 45 49 52 51 50 51 53 56 58 58 56 55 54 54 54 54 53 55 55 55 55 56 56 57 56 55 56 57 56 54 54 54 52 51 51 52 54 56 54 51 49 48 47 46 46 45 44 43 43 44 44 44 44 41 40 42 42 42 42 41 40 39 34 27 23 22 22 21 21 20 20 20
11 8 9 10 9 7 10 21 27 21 17 27 40 45 47 51 51 49 49 53 56 59 59 59 60 61 59 58 58 56 56 57 58 57 57 56 56 56 57 57 56 56 55 53 53 53 51 50 51 52 53 54 52 49 48 48 47 46 45 44 43 42 42 43 43 43 43 41 40 41 42 41 41 40 40 39 35 27 22 21 20 19 18 17 16 16
12 9 10 9 8 12 19 29 33 26 24 34 45 47 48 51 49 47 51 56 58 60 60 60 61 62 62 63 61 58 57 59 59 58 58 58 58 58 58 57 56 56 55 53 51 51 51 51 51 52 53 53 50 47 47 48 47 46 46 44 43 41 41 41 41 41 42 40 40 41 41 40 39 39 40 39 35 29 24 21 18 17 15 14 13 13
Wind_Direction
47 53 55 264 252 255 269 172 180 230 227 259 284 298 284 286 289 279 280 302 13 354 265 259 279 286 292 297 295 303 314 310 295 297 302 305 310 321 333 321 314 328 318 289 273 259 248 249 252 259 266 270 272 273 274 275 277 277 275 277 280 282 280 277 276 274 272 272 272 271 270 271 271 268 266 265 263 262 263 266 267 273 281 286 286 280
56 59 351 242 234 251 275 261 278 321 321 307 310 312 308 290 275 283 296 328 18 7 288 293 312 297 294 298 296 305 314 314 315 312 327 12 35 41 40 38 38 37 32 16 335 271 246 266 275 282 284 286 289 286 285 288 288 284 279 280 282 284 282 281 281 277 275 276 276 275 274 273 272 271 269 267 264 262 261 262 263 270 278 284 286 281
35 42 280 278 322 343 313 292 309 324 334 332 333 332 319 297 282 302 329 353 13 358 303 314 322 299 296 297 294 307 313 327 360 18 41 52 54 51 48 45 43 41 41 43 41 39 29 7 349 330 320 316 309 301 299 299 296 291 287 286 287 287 287 285 282 279 278 278 277 276 275 272 271 270 269 267 265 261 258 259 262 267 273 279 283 281
20 310 284 319 358 5 337 332 0 354 352 337 331 328 304 322 348 314 321 343 333 287 280 311 316 294 305 321 313 340 13 27 42 60 67 63 60 54 51 46 42 43 42 44 43 36 26 14 4 355 347 340 323 308 306 305 302 299 296 295 295 293 291 288 284 281 280 277 275 274 272 269 267 266 264 261 259 257 255 257 261 265 269 274 279 278
17 281 315 345 355 19 346 344 23 21 349 315 292 286 287 314 321 267 301 329 319 293 310 342 332 304 329 350 336 356 25 34 47 64 67 61 58 50 45 41 39 43 41 39 36 27 17 7 0 353 347 343 335 325 323 319 311 306 304 304 302 298 295 291 287 283 278 274 272 270 266 262 260 259 258 256 256 256 256 259 264 266 269 272 276 276
13 288 340 1 350 19 11 343 12 26 351 324 290 237 257 290 289 291 326 339 346 342 10 38 10 303 317 342 324 338 23 27 30 50 61 59 55 44 39 36 34 38 38 33 26 17 8 2 356 350 344 338 337 338 336 330 321 314 311 310 307 304 301 296 291 284 278 274 272 270 266 263 261 260 261 263 264 263 263 267 268 267 269 271 275 277
10 325 354 20 353 13 24 353 346 43 26 331 279 220 261 291 307 326 353 4 2 300 303 63 105 260 308 316 294 336 26 23 14 24 36 53 54 43 40 38 34 36 35 28 19 10 3 357 353 350 346 338 335 338 339 333 326 318 314 315 314 311 308 303 296 287 280 276 273 272 270 268 267 266 268 269 268 267 267 267 266 265 267 269 273 277
5 0 5 21 19 26 27 351 315 50 38 296 249 226 305 306 309 321 28 116 231 272 311 7 137 197 297 282 279 350 41 20 4 355 351 33 48 38 40 40 37 37 33 22 10 4 0 355 351 348 346 342 337 338 339 336 329 322 317 317 317 316 314 309 302 292 284 280 276 274 272 270 269 269 270 268 266 266 263 259 259 261 264 266 271 277
16 20 1 19 31 25 3 289 273 57 36 266 248 274 294 293 280 254 179 222 247 31 336 320 83 143 273 275 309 9 54 8 334 313 309 346 24 28 38 38 38 39 26 12 3 1 357 352 350 348 347 346 342 340 339 337 334 326 321 321 319 319 318 313 306 297 289 283 279 275 272 271 270 270 268 265 263 260 256 254 255 257 261 265 270 275
10 31 319 60 54 349 277 264 258 142 254 275 287 296 292 310 223 196 168 215 7 51 294 279 324 42 286 289 320 1 44 326 282 280 291 326 19 24 33 37 38 30 14 5 1 357 352 349 351 351 350 349 345 341 338 339 337 328 324 326 323 323 322 317 311 301 292 285 279 275 273 272 271 269 266 263 260 256 252 251 253 255 259 263 267 273
298 324 341 75 90 260 266 282 278 187 245 304 338 329 330 16 46 46 75 97 50 8 259 250 215 87 310 293 286 300 299 252 240 272 291 306 13 22 32 40 32 16 8 4 357 351 349 349 349 348 349 351 347 342 339 341 340 332 328 327 325 325 325 323 317 307 297 289 281 278 276 273 272 269 266 263 260 257 253 251 253 256 259 262 265 270
349 11 352 333 301 298 291 309 329 41 338 360 9 355 355 354 10 16 356 38 46 305 260 245 255 104 241 271 278 273 272 244 214 240 281 284 300 356 39 37 24 12 5 0 353 348 347 347 346 346 348 349 345 341 341 344 342 335 333 330 328 327 327 328 324 312 302 294 286 282 278 275 273 269 266 263 261 259 256 255 257 258 259 260 263 267
354 319 300 295 300 349 10 340 340 358 21 22 14 24 27 356 0 5 339 1 1 270 262 273 358 307 236 251 269 269 263 239 222 224 247 263 275 24 37 26 15 9 3 357 351 346 345 345 345 345 346 346 345 344 346 348 343 336 334 334 330 327 327 329 327 318 306 299 292 287 282 278 274 270 267 265 262 259 257 257 257 256 256 258 261 267
340 304 321 352 333 360 47 27 349 330 345 356 10 57 62 35 11 337 313 335 316 281 287 311 104 272 287 265 249 242 230 225 220 225 266 292 36 46 26 13 7 3 360 354 348 345 344 343 342 344 348 350 351 352 352 352 349 342 337 335 329 325 325 328 328 322 310 302 298 292 286 281 276 271 268 266 264 261 258 256 256 255 256 257 261 267
7 315 318 20 335 346 39 75 200 249 305 294 205 121 108 111 110 263 266 298 302 293 301 326 118 239 298 280 260 251 231 226 224 247 294 9 48 33 8 4 4 1 357 352 347 343 342 341 341 345 351 352 353 356 355 355 354 350 345 339 330 326 327 329 331 327 315 306 302 297 290 283 278 274 271 269 266 263 261 259 257 255 255 257 261 266
31 280 265 293 288 270 353 244 178 112 322 274 170 87 48 193 161 198 228 229 269 293 295 313 229 249 271 271 280 302 262 249 256 288 324 45 32 8 1 4 5 1 357 354 348 342 341 341 343 347 350 351 351 354 355 356 357 355 352 347 341 337 335 335 336 333 324 314 306 299 293 287 281 276 273 271 268 266 263 262 260 258 257 258 261 264
28 280 280 333 322 218 172 245 218 134 316 323 40 15 274 190 145 147 277 267 355 331 282 291 285 297 325 293 298 350 325 303 320 327 332 26 9 357 1 1 0 1 0 357 348 341 340 340 342 347 350 350 351 351 352 354 356 357 355 352 349 347 346 344 342 339 332 322 312 304 297 290 283 279 276 274 272 270 267 264 262 260 258 258 259 262
69 290 289 317 303 264 188 244 275 235 177 46 336 268 287 69 106 108 305 329 16 344 280 296 289 296 328 301 310 338 321 312 321 318 304 306 339 348 348 351 356 359 1 356 344 338 338 336 338 345 349 349 350 351 351 353 354 356 357 355 353 351 351 350 347 344 340 332 322 312 303 294 288 283 280 278 276 272 269 266 263 261 258 257 258 260
137 306 293 260 266 282 250 58 326 296 254 157 250 273 37 31 324 1 24 306 339 301 285 299 299 285 234 242 288 307 300 301 306 311 299 287 308 331 332 341 350 356 0 355 344 338 336 332 334 343 347 347 350 351 351 351 351 353 354 354 355 353 353 353 350 347 345 340 333 323 313 302 293 287 283 280 277 274 271 268 266 264 260 258 258 259
74 50 292 286 297 314 355 41 346 308 315 350 341 337 20 175 202 210 203 176 189 256 271 297 311 293 227 219 243 271 285 291 295 304 295 283 298 315 322 335 347 355 359 352 343 338 334 329 334 345 347 347 350 351 351 351 350 350 350 350 351 351 351 352 351 349 346 343 339 333 324 311 298 291 285 281 279 275 273 271 268 267 264 260 259 258
359 111 271 289 323 359 358 290 225 261 294 339 350 334 313 290 244 273 270 150 150 199 241 285 298 278 255 235 236 275 289 284 280 295 307 317 315 309 321 338 345 354 357 352 346 339 332 329 343 350 348 348 349 350 350 350 349 349 349 348 347 347 347 347 348 348 345 343 340 336 331 321 308 296 288 283 280 277 275 273 271 270 267 262 259 259
4 118 247 297 328 339 284 254 195 187 198 183 218 242 225 232 9 334 293 289 125 169 206 240 278 274 271 268 260 273 278 286 311 319 325 327 320 315 334 341 343 355 355 349 344 339 336 346 356 354 351 351 350 350 349 349 348 348 348 347 345 344 344 343 343 345 344 342 339 336 333 326 316 303 293 285 281 278 276 274 273 272 270 265 261 259
50 107 182 278 276 266 277 281 145 160 191 175 211 220 182 147 127 171 249 281 305 264 221 197 255 269 270 264 254 268 298 318 324 324 321 321 318 323 341 342 346 355 352 350 350 351 355 0 359 356 355 354 352 350 348 347 347 345 344 344 343 343 342 340 338 339 341 341 339 337 333 327 319 309 298 289 284 280 278 275 274 272 271 268 263 260
18 90 44 291 283 279 289 313 96 135 131 269 263 235 214 213 157 176 206 219 277 277 260 183 250 270 279 289 273 309 327 324 321 322 323 321 319 331 347 350 356 359 0 5 9 7 3 360 358 357 356 354 352 349 347 345 344 342 340 339 339 339 340 340 337 336 337 338 338 337 334 328 322 311 301 295 289 285 282 278 275 272 270 269 265 261
331 238 54 346 330 330 327 347 358 331 18 285 269 244 203 194 111 152 241 81 290 254 224 192 248 266 285 326 321 320 324 323 323 327 328 326 330 348 1 5 9 11 11 13 10 5 2 359 357 355 353 352 350 347 345 342 341 340 338 336 335 336 337 337 337 334 333 334 335 335 334 330 323 314 305 300 294 290 286 281 277 274 271 269 266 263
281 209 102 83 340 317 312 316 308 303 324 309 288 291 266 184 215 290 293 111 246 247 200 199 248 269 292 313 315 314 319 324 326 328 333 344 358 8 12 14 15 14 11 9 6 3 359 355 352 351 349 348 345 343 340 337 336 335 335 334 334 334 335 335 335 333 330 330 331 332 333 330 324 317 309 302 297 293 288 283 278 275 273 270 267 264
86 226 200 172 188 235 255 259 264 281 300 293 293 295 291 263 216 237 190 210 233 265 268 248 259 280 292 301 307 315 328 332 330 337 351 5 11 11 11 12 11 9 9 7 3 358 353 350 347 344 342 340 337 335 333 331 329 330 330 330 330 330 331 332 332 330 328 326 326 327 329 329 325 319 312 305 300 294 289 284 280 276 274 271 268 265
75 318 254 198 214 244 248 260 275 284 278 275 282 286 290 297 272 197 226 244 238 348 281 267 276 287 291 311 329 340 349 348 348 359 9 12 11 9 9 7 3 2 1 358 354 349 345 341 338 335 334 332 330 329 327 326 325 326 327 328 327 326 326 327 327 326 325 323 322 324 325 326 325 321 315 309 303 296 290 286 281 278 275 272 269 266
109 280 249 192 235 259 260 267 275 275 270 266 266 273 285 300 293 260 252 255 246 238 260 271 284 288 309 346 353 357 3 360 356 1 10 12 9 8 4 358 355 351 348 346 343 340 335 332 330 329 328 327 326 326 326 325 325 326 327 327 327 325 324 324 323 321 321 321 320 321 322 322 323 322 319 313 306 300 294 288 283 279 276 272 270 267
121 266 259 215 255 271 269 267 267 263 269 280 279 280 288 290 281 270 263 262 251 240 254 274 286 295 349 6 354 353 357 355 354 358 4 4 1 359 355 350 347 343 338 336 334 331 328 326 325 325 324 325 327 327 326 326 326 325 325 325 325 323 321 322 321 320 320 318 318 320 320 319 320 322 321 317 311 305 298 292 285 280 276 273 270 268
106 276 304 3 311 292 280 268 267 260 267 283 287 291 302 304 299 294 287 292 291 270 281 303 309 326 5 354 341 348 353 353 354 355 353 348 348 350 347 343 339 335 331 329 327 326 324 323 322 322 323 325 326 327 326 326 325 324 323 323 322 321 320 320 320 319 318 317 317 320 319 318 318 318 320 320 315 309 302 294 287 280 276 273 270 268
53 289 333 27 344 299 294 319 313 300 294 289 289 306 319 317 318 314 317 4 16 351 358 9 357 344 351 344 340 349 352 350 349 347 339 332 340 344 339 333 330 328 325 323 322 321 320 320 320 320 321 322 324 325 324 324 323 322 321 320 320 320 319 319 318 317 315 314 316 318 318 317 317 315 316 318 317 313 306 297 288 280 275 273 271 268
119 343 326 9 332 294 305 329 320 319 331 311 315 346 336 328 340 339 355 41 36 25 25 14 347 332 339 342 343 349 350 344 338 335 327 321 329 332 327 325 324 321 320 318 317 317 317 318 319 319 319 320 320 321 320 320 319 317 317 317 317 318 318 317 317 315 314 313 314 316 317 317 316 314 312 314 316 315 309 299 289 281 277 275 272 268
65 100 278 278 244 288 306 327 329 330 329 288 346 15 359 351 358 353 7 51 38 35 27 350 336 340 343 345 344 341 338 331 323 321 318 316 322 325 324 323 321 319 318 316 316 316 317 318 319 319 318 317 317 317 316 316 315 315 315 315 315 316 316 316 316 314 313 313 313 314 315 315 315 314 311 309 312 314 310 302 292 285 279 275 271 267
354 153 251 245 202 278 311 354 342 318 300 293 14 27 12 2 357 350 4 66 33 21 12 353 345 342 340 337 334 328 325 324 320 316 317 320 322 323 323 322 320 319 318 318 318 319 319 319 318 317 317 316 315 315 313 313 314 315 315 315 315 315 315 315 314 313 312 313 312 312 313 312 313 314 311 306 306 311 311 304 295 287 280 275 272 269
194 170 246 270 213 281 322 9 314 294 313 2 18 18 8 2 351 338 336 51 31 16 6 353 342 337 336 333 331 329 326 323 319 317 320 324 326 327 325 323 322 322 320 320 320 319 318 318 317 316 315 314 313 313 312 313 315 315 314 313 313 313 314 313 311 311 312 313 313 312 310 309 309 310 309 304 301 307 312 307 297 289 282 277 273 269
170 131 301 283 206 219 292 277 283 295 321 12 12 359 359 349 326 316 303 279 25 13 3 351 341 338 336 333 331 330 327 323 319 320 326 329 329 327 325 323 322 321 319 319 318 317 317 316 316 315 315 314 313 312 312 313 313 313 311 311 311 311 311 311 309 311 313 314 315 313 310 307 304 303 303 300 295 300 311 309 300 291 283 277 272 269
185 183 174 272 266 107 302 289 303 304 305 358 344 336 346 336 317 307 288 255 10 3 354 349 340 333 330 328 326 326 325 322 316 321 326 326 325 324 322 321 320 319 318 318 317 317 317 317 316 316 314 313 312 311 311 311 312 312 310 310 311 310 310 310 310 311 313 315 316 316 314 312 307 301 298 296 293 296 306 308 301 292 283 277 273 271
195 205 142 148 273 289 318 284 282 283 300 357 340 336 345 338 324 312 299 306 358 351 343 339 330 322 320 320 321 323 322 320 317 319 322 321 321 321 320 319 319 318 318 318 318 318 318 317 317 316 316 315 312 310 311 312 313 313 310 310 311 311 310 311 309 310 313 315 316 316 316 316 314 307 300 293 290 296 303 303 299 291 282 277 274 271
93 216 133 206 257 249 209 251 272 272 280 339 334 341 347 341 335 338 333 327 340 335 328 324 318 314 316 317 319 321 318 313 311 313 316 317 317 318 318 318 318 318 318 318 318 319 319 319 317 317 317 316 315 313 314 316 315 312 309 311 312 311 312 313 310 310 314 315 316 317 317 317 316 313 306 296 292 297 300 298 295 288 280 275 272 269
306 274 174 208 266 272 228 253 293 243 232 345 347 353 354 349 351 15 335 311 317 318 316 316 313 312 316 317 316 316 311 310 310 311 314 317 317 318 319 319 318 318 318 318 318 319 320 319 317 316 316 316 316 316 317 317 315 311 311 313 312 311 314 314 312 312 315 316 316 317 317 317 316 314 311 304 299 297 295 294 293 287 278 274 271 266
313 299 265 237 284 288 242 269 290 236 27 4 353 351 359 3 4 336 311 304 308 310 310 313 313 312 316 317 315 314 312 312 313 313 316 319 319 319 320 320 319 319 319 319 320 320 320 318 317 317 317 317 316 316 316 316 312 311 313 314 313 314 316 314 312 313 316 317 318 317 317 317 316 314 311 307 303 298 296 295 292 285 277 272 268 264
313 306 318 317 295 307 311 319 313 275 10 4 351 346 11 12 320 303 306 304 308 311 311 313 313 315 318 318 316 315 313 314 316 316 318 320 320 319 320 320 320 320 319 319 320 320 320 318 317 316 315 316 316 315 316 314 312 312 314 314 315 318 318 315 314 316 319 319 319 319 318 318 318 316 312 308 305 301 299 295 290 282 276 271 265 260
349 1 323 314 351 352 327 324 336 315 338 352 348 336 341 335 320 316 314 310 313 317 316 315 316 318 321 319 317 316 315 315 317 318 318 319 319 319 320 320 320 319 319 319 319 319 319 318 316 316 315 314 314 315 316 315 313 313 314 315 318 320 321 320 320 321 321 321 321 321 321 320 319 317 314 310 307 303 298 293 287 280 274 269 263 257
36 8 318 284 358 338 268 272 325 328 335 343 342 331 327 328 327 326 322 318 318 320 320 319 319 321 322 320 318 316 315 316 317 318 318 317 318 319 319 320 320 319 319 319 318 319 319 318 317 317 316 315 316 319 320 317 314 313 314 316 320 321 322 323 323 323 323 322 322 323 323 322 321 320 318 315 309 303 299 293 286 280 274 267 261 255
33 5 348 292 334 320 295 328 336 334 336 336 332 328 327 327 326 326 323 321 320 320 320 320 319 319 320 319 317 315 314 315 316 316 316 316 317 318 319 319 320 320 319 319 319 318 318 319 319 320 318 318 320 323 323 320 316 314 315 317 320 322 323 323 323 324 324 323 323 325 324 323 323 322 322 320 314 308 303 295 287 281 274 267 261 255
9 3 3 6 340 332 325 342 339 332 329 328 324 324 326 325 325 325 323 321 320 320 320 320 319 319 319 318 316 314 314 315 315 314 315 316 317 318 319 318 319 320 319 319 319 319 320 320 321 322 322 321 322 324 325 322 319 317 317 318 321 322 323 324 324 324 323 323 326 328 327 325 325 325 325 325 322 316 307 297 289 282 274 268 262 255
345 356 0 345 340 329 303 325 332 327 323 324 323 324 326 326 325 325 324 323 322 321 321 321 321 320 319 318 318 316 315 316 316 315 315 316 317 318 319 319 319 320 319 320 320 321 323 323 322 323 323 323 324 326 325 322 320 319 320 321 322 323 324 325 326 324 322 325 329 330 328 328 327 328 329 330 327 321 310 299 293 288 282 277 271 261
345 353 349 329 325 313 305 327 332 325 319 322 325 325 326 325 323 323 323 323 322 321 321 322 322 321 320 319 320 319 317 317 318 317 316 317 318 319 319 319 320 320 319 320 321 322 323 322 322 324 324 324 325 324 323 323 322 322 323 323 323 324 324 325 326 325 324 328 332 330 329 330 330 331 332 332 331 325 316 308 303 297 291 287 280 272
2 357 345 334 327 321 321 329 331 324 315 321 324 324 324 324 322 321 322 322 322 322 322 322 322 322 322 321 322 321 319 317 318 318 317 317 319 320 321 321 321 320 320 321 322 323 322 322 323 325 325 325 325 324 324 324 324 324 325 325 325 325 324 325 326 326 326 330 333 332 330 331 331 334 336 335 333 330 324 319 313 305 297 290 281 273
4 351 344 335 318 315 319 324 326 322 313 316 321 322 322 323 322 322 322 323 322 322 322 322 321 320 320 321 321 320 318 317 317 317 317 318 319 321 321 322 321 321 321 322 322 322 322 322 324 325 326 326 326 327 326 325 325 325 326 325 326 325 325 325 326 325 327 331 334 333 332 331 333 337 339 337 336 334 330 326 319 308 299 292 280 265